LiveATC.Net - Listen to live air traffic control over the Internet!


ICAO: MMLP  IATA: LAP   Airport: Gen Manuel Marquez Airport
City: La Paz
Country: Mexico   Continent: North America
MMLP METAR Weather: MMLP 281842Z 33008KT 10SM SKC 23/12 A2997
MMLP ADS-B Flight Tracking (ADSBExchange)
MMLP Flight Activity (FlightAware)

MMLP Twr/App
Feed Status: UP   Listeners: 4
Listen in your browser - HTML5 player (in browser, HTML5)
Click here to listen with your own player (launches your MP3 player)
Archive Access: MMLP Twr/App
FacilityFrequency
La Paz Approach120.600
La Paz Tower118.100

NOTICE

Unauthorized use prohibited. See LiveATC.net Terms of Service


Airport/ARTCC Code
Frequency Search
(e.g., 124.400, 128.75)
Site-wide search
 


Browse Feeds
Top 50 Feeds
HF Oceanic Feeds
Coverage Map
Bad Weather Areas

LiveATC FAQ
Offer LiveATC feed
Contact LiveATC.net
Press Inquiries

LiveATC on iPhone
LiveATC on Android

LiveATC Mobile
(Mobile browser)

ATC Audio Archives
Interesting Recordings

LiveATC Forums


Home Page
About LiveATC.net


Terms of Use
Privacy Policy

AIRMETs/SIGMETs

FAA Airport Status
NAS Status
Arrival Demand


Server Software By:
Icecast.org
Liquidsoap